Flag for U.S.A. Weather past 2 weeks in Sacramento, California, U.S.A.

Now
55 °F

Clear.


Feels Like: 55 °F
Forecast: 50 / 85 °F
Wind: No wind

Location: Sacramento Executive Airport

Current Time: Apr 18, 2015 at 5:04:02 AM

Latest Report: Apr 18, 2015 at 3:53 AM


Visibility: 10 mi

Pressure: 29.98 "Hg

Humidity: 64%

Dew point: 43 °F

Location of SacramentoLocation

Historic Weather in Sacramento — Graph

°F

Sacramento temperature yesterday

Maximum temperature yesterday: 83 °F (at 3:53 PM)
Minimum temperature yesterday: 49 °F (at 6:53 AM)
Average temperature yesterday: 66 °F

Past Weeks' High & Low Weather Summary

 TemperatureHumidityPressure
High83 °F (Apr 17, 3:53 PM)94% (Apr 7, 8:01 AM)30.34 "Hg (Apr 7, 8:01 AM)
Low38 °F (Apr 3, 6:53 AM)11% (Apr 14, 4:53 PM)29.79 "Hg (Apr 7, 5:53 AM)
Average58 °F53%30.02 "Hg
* Reported Apr 3 3:53 AM — Apr 18 3:53 AM, Sacramento, Weather by CustomWeather, © 2015

Note: Actual official high and low records may vary slightly from our data, if they occured in-between our weather recording intervals... More about our weather records

Advertising

Sacramento weather history for previous 24 hours

 ConditionsComfort  
Time TempWeatherWind HumidityBarometerVisibility
3:53 AM
Sat, Apr 18
55 °FClear.No wind64%29.98 "Hg10 mi
2:53 AM55 °FClear.No wind64%29.99 "Hg10 mi
1:53 AM57 °FClear.No wind60%30.00 "Hg10 mi
12:53 AM58 °FClear.No wind58%30.00 "Hg10 mi
11:53 PM
Fri, Apr 17
60 °FClear.5 mph53%29.99 "Hg10 mi
10:53 PM62 °FClear.6 mph46%29.99 "Hg10 mi
9:53 PM64 °FClear.5 mph45%29.98 "Hg10 mi
8:53 PM69 °FClear.8 mph39%29.97 "Hg10 mi
7:53 PM74 °FSunny.8 mph37%29.95 "Hg10 mi
6:53 PM79 °FSunny.6 mph22%29.95 "Hg10 mi
5:53 PM82 °FSunny.5 mph21%29.96 "Hg10 mi
4:53 PM83 °FSunny.7 mph19%29.97 "Hg10 mi
3:53 PM83 °FSunny.3 mph18%29.99 "Hg10 mi
2:53 PM81 °FSunny.3 mph21%30.01 "Hg10 mi
1:53 PM78 °FSunny.5 mph27%30.04 "Hg10 mi
12:53 PM74 °FSunny.6 mph33%30.06 "Hg10 mi
11:53 AM70 °FSunny.7 mph35%30.08 "Hg10 mi
10:53 AM68 °FSunny.3 mph40%30.09 "Hg10 mi
9:53 AM65 °FSunny.6 mph40%30.09 "Hg10 mi
8:53 AM60 °FSunny.5 mph46%30.08 "Hg10 mi
7:53 AM57 °FSunny.No wind60%30.07 "Hg10 mi
6:53 AM49 °FClear.No wind66%30.05 "Hg10 mi
5:53 AM50 °FClear.No wind66%30.03 "Hg10 mi
Weather by CustomWeather, © 2015

See weather overviewHow to use our weather pages